Location: *
(2.5500°S, 65.9667°W)
Time: 20:48:50
(UTC+00:00)

Cosmos 2173 Rocket - Pass Details

Date: 06 June 2022
Orbit: 945 x 1000 km, 83.0° (Epoch: 02 July)

Event Time Altitude Azimuth Distance (km) Brightness Sun altitude
Rises 09:11:35 0° 7° (N) 3,667 7.4 -17.3°
Reaches altitude 10° 09:14:09 10° 11° (N) 2,730 6.8 -16.8°
Maximum altitude 09:20:14 54° 87° (E) 1,188 4.8 -15.4°
Drops below altitude 10° 09:26:25 10° 163° (SSE) 2,767 6.3 -13.9°
Sets 09:29:01 0° 168° (SSE) 3,722 6.9 -13.3°
